Overview Statistics Trail Chart Weather Telemetry Raw packets
 

This is the latest recevied weather packets stored in our database for station/object AA7VG. If no packets are shown the sender has not sent any weather packets the latest 10 day(s).

<< 16 17 18 19 20 21 22 >>
Time Temp. Humidity Pressure Rain* Wind** Luminosity Snow
1788502511 16.11° C 41% 1008.1 hPa 0 mm - - -
1788502207 16.11° C 43% 1008.2 hPa 0 mm - - -
1788501903 15.56° C 44% 1008.1 hPa 0 mm - - -
1788501599 15.56° C 46% 1008.1 hPa 0 mm - - -
1788501294 15.56° C 45% 1008.1 hPa 0 mm - - -
1788500989 15.56° C 46% 1008.7 hPa 0 mm - - -
1788500685 15.56° C 46% 1008.5 hPa 0 mm - - -
1788500380 16.11° C 47% 1008.4 hPa 0 mm - - -
1788500080 16.11° C 46% 1008.6 hPa 0 mm - - -
1788499776 16.67° C 45% 1008.6 hPa 0 mm - - -
1788499472 17.22° C 44% 1008.7 hPa 0 mm - - -
1788499167 17.22° C 43% 1008.7 hPa 0 mm - - -
1788498864 16.67° C 43% 1008.6 hPa 0 mm - - -
1788498563 17.22° C 44% 1008.7 hPa 0 mm - - -
1788498260 17.22° C 44% 1008.9 hPa 0 mm - - -
1788497960 17.78° C 44% 1008.8 hPa 0 mm - - -
1788497655 17.78° C 43% 1008.8 hPa 0 mm - - -
1788497355 18.33° C 41% 1008.9 hPa 0 mm - - -
1788497051 18.33° C 38% 1009 hPa 0 mm - - -
1788496747 18.89° C 35% 1009 hPa 0 mm - - -
1788496444 18.89° C 35% 1009.1 hPa 0 mm - - -
1788496139 18.89° C 34% 1009.1 hPa 0 mm - - -
1788495835 18.89° C 35% 1009 hPa 0 mm - - -
1788495529 18.89° C 34% 1009.3 hPa 0 mm - - -
1788495226 18.89° C 35% 1009.4 hPa 0 mm - - -

* Rain latest hour (hover to see other rain measurements)
** Current wind speed in m/s (hover to see current wind gust speed)